Wind_Speed
14 15 15 15 16 16 16 16 16 15 15 15 14 14 14 14 14 15 14 13 13 13 12 12 12 12 12 12 12 12 12 11 11 10 10 10 10 11 11 11 10 11 11 11
15 16 15 16 16 16 17 16 16 16 15 15 15 14 15 15 14 14 14 14 13 13 12 12 12 12 12 12 13 12 11 11 11 11 11 11 11 11 11 12 11 11 12 11
16 16 16 17 17 16 16 17 17 16 15 16 16 16 16 15 15 15 15 14 14 14 13 13 13 13 13 12 12 12 12 12 12 12 12 12 12 12 12 12 12 12 12 12
16 16 17 17 17 17 17 16 16 17 17 17 18 17 16 17 16 16 16 16 16 15 15 14 14 14 13 12 12 12 12 13 12 12 12 11 12 12 12 12 12 12 12 13
17 17 17 17 17 17 17 17 17 17 18 19 18 19 17 17 17 16 16 17 17 17 16 16 15 15 14 14 13 13 13 13 13 13 13 12 12 12 12 12 13 12 13 13
17 18 18 18 18 18 18 19 19 19 20 20 18 20 18 17 16 17 18 18 17 17 17 17 16 15 15 15 14 15 14 13 14 14 14 14 14 13 13 13 13 13 14 14
18 18 19 19 19 19 19 19 20 20 21 20 19 20 18 17 17 18 18 18 19 19 19 18 17 16 16 15 15 14 14 14 15 15 15 15 15 15 14 14 14 14 14 15
18 19 19 19 19 20 20 20 20 20 21 20 19 19 18 18 18 18 18 18 19 19 19 18 17 16 16 15 15 15 15 15 15 15 15 15 15 15 15 15 15 15 15 15
18 19 19 19 19 20 20 20 20 21 21 21 20 19 18 18 18 18 18 18 18 18 17 17 17 16 16 16 16 16 16 16 16 16 15 15 15 15 16 16 16 16 16 16
19 19 18 18 19 20 20 20 21 21 22 21 20 19 18 18 18 18 18 17 18 18 18 18 17 18 17 17 17 16 16 16 16 15 15 15 16 16 17 17 17 18 18 17
19 19 18 18 19 20 21 21 22 22 23 22 21 19 17 17 17 17 17 17 18 19 19 18 18 18 18 17 16 16 16 16 16 16 15 16 16 17 17 18 18 18 18 19
19 19 19 19 20 20 21 22 23 23 23 23 22 19 18 17 17 17 17 17 18 18 19 18 18 18 18 17 17 17 16 16 16 16 16 17 17 18 18 18 18 19 19 19
20 20 20 20 21 21 21 22 22 22 23 23 23 20 19 19 18 18 18 18 18 18 18 18 18 18 18 18 18 18 17 16 16 17 17 18 18 19 19 19 19 19 19 19
22 22 21 21 21 22 22 22 22 23 23 23 22 20 20 20 19 19 19 19 18 18 18 18 18 18 19 19 19 19 18 18 18 19 19 19 20 20 21 20 20 19 19 20
23 24 22 21 22 22 22 22 23 23 23 24 22 22 20 20 19 19 19 19 18 18 19 19 19 19 19 19 19 19 19 19 19 19 20 20 21 21 21 21 20 20 20 20
23 24 23 23 22 23 23 23 23 24 24 24 23 21 21 21 20 19 19 19 19 20 20 20 20 20 20 20 20 20 20 20 20 20 20 21 21 21 21 21 21 21 21 21
24 24 24 24 23 23 24 23 24 24 25 25 25 23 22 22 20 19 19 20 20 21 21 22 22 21 21 21 22 22 22 21 21 21 21 21 21 21 21 22 22 22 22 21
23 24 24 24 24 25 22 22 23 24 25 25 25 24 23 22 21 21 21 21 22 21 22 22 22 23 23 23 24 24 24 23 23 23 23 23 23 22 22 22 22 23 23 23
23 24 25 24 25 25 23 22 23 24 25 25 25 24 24 23 23 22 22 23 23 23 23 23 24 23 24 24 25 25 25 25 24 24 24 24 24 23 23 22 22 23 23 23
22 23 25 25 25 24 22 22 23 24 25 25 25 25 24 24 24 24 24 24 24 24 24 24 25 25 25 25 25 25 26 25 24 24 24 24 24 24 23 23 23 23 23 24
23 24 24 24 24 24 22 22 24 25 24 24 26 26 25 25 25 25 25 25 25 25 25 25 25 25 26 26 26 26 26 26 26 26 26 26 25 25 25 25 25 25 24 25
22 23 23 24 24 23 23 23 24 25 25 25 25 26 26 26 26 26 26 26 26 26 26 26 26 26 26 27 27 27 27 27 27 27 27 27 27 26 26 27 27 26 26 26
23 24 23 24 23 23 22 23 24 25 25 25 26 26 27 27 27 27 27 27 27 28 28 28 28 28 28 28 27 27 28 28 29 29 29 28 28 28 28 28 29 29 28 28
24 24 25 24 24 23 23 24 25 25 25 26 26 27 27 28 28 28 28 28 28 29 29 29 29 28 28 28 29 29 29 29 30 30 29 29 29 29 29 29 30 30 30 29
24 25 25 25 24 24 24 25 25 25 25 26 27 27 28 28 28 28 28 28 29 28 29 28 28 28 28 29 30 30 29 29 29 29 29 29 30 30 30 30 30 30 30 30
23 24 25 25 25 26 25 26 26 25 25 26 27 27 27 26 26 27 28 29 29 29 29 28 28 28 28 29 30 30 30 30 29 29 29 29 29 30 30 30 31 31 31 31
Wind_Direction
253 254 253 255 257 257 258 258 259 259 260 261 262 262 262 263 262 261 261 259 259 263 264 266 265 267 271 274 276 275 273 271 272 272 271 272 274 277 280 280 278 278 278 277
254 253 255 256 257 257 257 258 259 260 261 259 258 261 261 261 261 260 258 257 259 260 261 265 267 268 268 270 272 272 271 270 269 269 269 272 273 275 277 279 278 277 276 276
256 256 256 256 258 258 258 259 259 261 262 261 259 261 262 261 264 262 259 259 259 260 260 262 266 268 268 269 268 270 273 269 270 267 267 268 271 274 274 277 277 277 276 276
254 255 255 255 256 259 258 260 261 261 261 261 263 263 263 264 265 265 261 257 258 260 259 261 265 264 265 267 267 270 271 270 270 269 268 270 271 272 273 276 278 278 278 276
254 255 256 257 258 259 260 261 261 261 262 263 263 265 265 266 265 265 262 260 259 259 258 261 263 264 264 265 267 269 270 269 271 271 270 271 271 272 273 275 275 277 278 276
255 254 256 258 259 261 261 263 262 261 262 264 264 266 267 266 266 264 263 261 259 259 259 260 262 264 265 267 268 268 267 270 272 273 271 268 268 269 272 274 275 276 276 276
256 257 258 258 257 258 258 261 263 262 262 264 264 265 268 267 265 264 263 261 259 259 261 261 263 263 265 266 268 268 271 273 274 272 269 267 266 267 271 274 275 277 278 276
259 259 259 259 258 257 257 258 260 264 262 264 265 267 269 268 266 264 263 262 262 262 263 262 260 261 262 265 268 272 273 274 274 272 272 270 267 267 270 272 273 276 277 277
261 261 260 259 259 257 255 256 258 262 265 263 265 267 269 270 268 266 265 264 263 264 263 258 257 260 264 267 269 272 273 273 272 270 271 272 270 270 271 272 272 273 275 275
262 260 259 258 256 255 256 257 257 261 265 266 264 265 269 269 269 267 266 265 265 265 264 262 261 263 266 267 269 271 272 270 272 270 271 271 272 272 274 276 274 273 274 276
262 260 258 257 254 255 256 257 259 260 262 264 265 262 267 268 269 266 266 265 264 262 262 261 262 264 267 267 268 271 273 269 269 270 271 272 274 275 274 276 275 275 276 277
262 261 260 258 257 256 257 260 261 259 260 261 262 261 263 266 267 267 267 265 263 261 261 260 261 263 267 269 270 271 273 272 270 267 270 272 273 277 277 277 278 278 278 279
260 262 262 258 257 256 256 257 258 259 259 260 261 260 261 263 266 267 267 265 264 261 260 259 261 263 265 267 268 270 271 272 271 270 271 273 274 277 280 279 279 279 280 280
259 261 262 262 261 258 256 256 255 257 258 260 261 262 261 262 264 265 265 265 264 262 260 261 263 265 265 265 268 269 269 270 271 270 271 273 274 277 277 277 279 280 280 280
257 259 261 262 263 260 259 255 256 258 260 263 263 263 262 263 264 265 262 263 262 262 263 264 265 266 266 266 268 268 269 270 270 271 271 273 275 277 277 276 278 279 279 280
259 260 260 261 263 262 259 257 256 258 260 263 263 262 262 264 265 264 262 262 263 263 263 264 266 267 267 267 269 270 269 269 270 270 271 272 273 275 276 276 276 278 279 279
261 262 263 262 261 261 259 259 260 259 260 262 263 264 263 263 266 267 264 263 263 263 264 265 266 266 267 266 268 270 271 270 271 272 272 272 272 274 275 275 275 277 277 279
261 261 263 266 263 262 263 262 261 261 262 262 262 263 263 262 266 267 263 263 264 265 266 266 266 265 267 268 270 271 272 272 273 273 272 272 271 272 272 274 275 275 276 278
264 262 263 266 265 264 263 264 263 262 262 262 262 263 263 262 263 264 264 264 264 265 266 266 267 266 267 269 270 272 273 273 273 272 272 272 272 272 272 272 275 276 276 278
264 263 263 264 265 265 265 263 262 262 261 261 262 263 264 264 263 264 265 265 265 266 267 268 268 267 267 269 270 272 273 273 273 272 272 272 271 271 272 272 274 276 278 277
264 265 264 264 265 266 266 263 263 262 262 262 263 263 264 266 267 266 267 267 266 266 267 268 267 267 268 270 271 272 273 273 272 272 273 272 271 272 271 271 272 274 276 277
264 265 266 266 268 269 268 263 263 265 266 265 265 265 264 265 267 266 266 267 267 267 268 268 267 268 270 271 271 272 273 273 273 272 273 272 271 271 270 271 272 273 274 276
265 265 267 269 271 270 266 263 265 267 268 266 266 265 264 264 265 267 267 266 266 267 268 267 267 269 270 271 272 275 275 273 272 273 273 273 272 270 270 271 271 272 274 275
267 266 267 269 270 270 266 263 266 268 269 268 267 267 265 265 266 266 267 266 266 267 268 268 268 268 271 273 274 274 274 272 271 270 271 273 272 272 271 271 272 272 273 274
269 269 269 269 269 269 268 266 268 268 269 270 269 268 269 267 265 265 266 267 267 268 269 270 269 270 272 274 274 274 272 272 272 270 271 273 272 272 271 271 273 273 273 273
271 270 270 269 267 267 268 267 269 269 270 271 271 271 269 268 266 266 268 268 269 270 270 271 272 272 272 274 275 274 272 272 272 271 271 272 274 274 274 273 272 273 274 274
Height
5816 5817 5818 5819 5820 5821 5821 5822 5823 5824 5824 5824 5825 5825 5826 5826 5826 5827 5827 5828 5828 5828 5829 5829 5829 5829 5829 5829 5829 5829 5829 5829 5828 5828 5828 5828 5827 5827 5827 5826 5826 5825 5825 5824
5813 5814 5815 5815 5816 5817 5817 5818 5819 5820 5821 5821 5821 5822 5822 5823 5823 5824 5824 5825 5825 5825 5826 5826 5826 5826 5826 5826 5826 5826 5825 5825 5825 5825 5825 5825 5825 5824 5824 5823 5823 5822 5822 5821
5809 5811 5811 5811 5812 5813 5814 5815 5816 5816 5817 5816 5818 5819 5819 5819 5820 5820 5821 5821 5822 5822 5822 5822 5823 5823 5823 5823 5823 5823 5822 5822 5822 5822 5821 5821 5821 5821 5821 5821 5820 5819 5819 5818
5804 5806 5806 5807 5808 5809 5810 5811 5812 5812 5813 5813 5814 5814 5816 5815 5816 5816 5817 5817 5818 5818 5819 5819 5819 5819 5819 5819 5819 5819 5819 5819 5818 5818 5818 5818 5818 5818 5818 5817 5817 5817 5816 5815
5801 5802 5802 5803 5805 5805 5806 5807 5807 5808 5808 5809 5809 5809 5812 5811 5812 5812 5813 5813 5814 5814 5815 5815 5815 5816 5816 5816 5816 5816 5816 5815 5815 5815 5815 5815 5815 5815 5814 5814 5814 5813 5813 5812
5796 5797 5798 5799 5800 5801 5801 5802 5803 5803 5803 5804 5805 5805 5807 5807 5808 5808 5808 5808 5809 5810 5810 5811 5811 5811 5812 5812 5812 5812 5812 5812 5811 5811 5811 5811 5811 5811 5811 5810 5810 5809 5809 5808
5792 5793 5793 5794 5795 5796 5796 5798 5798 5798 5798 5799 5800 5800 5802 5803 5803 5803 5803 5803 5804 5805 5806 5806 5807 5807 5807 5807 5808 5808 5808 5808 5807 5807 5807 5807 5807 5807 5807 5806 5806 5805 5805 5805
5787 5789 5789 5789 5790 5791 5791 5793 5793 5793 5794 5795 5795 5795 5798 5798 5798 5798 5799 5799 5799 5800 5801 5802 5802 5802 5803 5803 5803 5803 5803 5803 5803 5803 5803 5803 5803 5803 5803 5802 5802 5801 5801 5800
5782 5784 5784 5785 5785 5786 5786 5787 5788 5788 5788 5789 5790 5791 5793 5793 5793 5793 5794 5794 5794 5795 5796 5796 5797 5798 5798 5798 5798 5798 5798 5798 5799 5799 5799 5799 5798 5798 5798 5798 5797 5797 5796 5796
5778 5779 5780 5780 5780 5781 5782 5782 5783 5783 5783 5783 5785 5787 5788 5788 5788 5789 5789 5789 5790 5790 5790 5791 5792 5792 5793 5793 5794 5794 5794 5794 5794 5794 5794 5794 5794 5793 5793 5793 5792 5792 5791 5791
5772 5774 5775 5775 5775 5776 5777 5777 5777 5778 5778 5779 5780 5785 5784 5783 5783 5784 5784 5784 5784 5785 5786 5786 5787 5787 5788 5788 5788 5789 5789 5789 5789 5789 5789 5789 5789 5789 5788 5788 5787 5787 5786 5785
5767 5768 5769 5770 5770 5770 5771 5772 5772 5773 5774 5774 5775 5780 5778 5779 5778 5779 5779 5779 5779 5780 5780 5781 5782 5783 5783 5783 5783 5783 5784 5784 5784 5784 5784 5784 5783 5783 5783 5782 5782 5781 5780 5780
5761 5762 5763 5764 5766 5766 5766 5766 5767 5768 5768 5768 5770 5775 5773 5773 5773 5774 5774 5775 5775 5775 5775 5776 5777 5777 5778 5778 5778 5778 5778 5778 5778 5778 5778 5778 5778 5778 5777 5777 5776 5775 5775 5774
5755 5756 5758 5759 5758 5759 5760 5761 5761 5762 5762 5763 5765 5767 5768 5768 5768 5768 5769 5769 5769 5770 5770 5771 5771 5772 5772 5772 5772 5772 5773 5773 5773 5773 5773 5772 5772 5771 5771 5770 5770 5769 5769 5768
5749 5750 5751 5752 5752 5753 5754 5755 5756 5756 5757 5758 5760 5761 5762 5762 5762 5763 5763 5764 5764 5765 5765 5765 5766 5766 5766 5766 5766 5767 5767 5767 5767 5767 5767 5766 5766 5765 5764 5764 5763 5763 5762 5762
5742 5743 5744 5746 5746 5746 5747 5749 5749 5750 5751 5752 5753 5755 5756 5756 5757 5757 5757 5758 5758 5759 5759 5760 5760 5760 5760 5760 5761 5761 5761 5760 5760 5760 5760 5760 5759 5759 5758 5758 5757 5757 5756 5756
5736 5737 5738 5739 5739 5740 5741 5743 5743 5744 5745 5746 5747 5750 5750 5750 5750 5751 5752 5752 5752 5753 5753 5754 5754 5754 5754 5754 5754 5754 5754 5754 5753 5753 5753 5753 5753 5753 5752 5751 5751 5750 5750 5749
5730 5730 5730 5731 5733 5733 5737 5737 5737 5737 5738 5739 5740 5742 5743 5744 5744 5745 5745 5746 5746 5746 5747 5747 5747 5747 5747 5747 5747 5747 5747 5747 5747 5746 5746 5746 5746 5746 5746 5745 5744 5744 5743 5743
5723 5724 5724 5724 5725 5726 5729 5730 5730 5731 5732 5733 5734 5735 5736 5737 5738 5739 5739 5739 5739 5740 5740 5740 5740 5740 5740 5740 5740 5740 5740 5740 5739 5739 5739 5739 5739 5739 5738 5738 5738 5737 5737 5736
5717 5717 5718 5718 5718 5719 5724 5724 5723 5725 5725 5727 5726 5728 5729 5730 5731 5733 5732 5732 5732 5733 5733 5733 5733 5733 5733 5733 5733 5733 5733 5733 5732 5732 5732 5732 5732 5731 5731 5731 5731 5730 5730 5729
5711 5711 5711 5711 5711 5713 5716 5716 5717 5718 5720 5720 5720 5721 5721 5722 5724 5725 5725 5725 5725 5725 5725 5725 5725 5725 5725 5725 5725 5725 5725 5725 5725 5725 5724 5724 5724 5724 5724 5724 5724 5723 5723 5722
5704 5705 5705 5705 5705 5709 5708 5709 5710 5710 5711 5711 5712 5713 5714 5715 5716 5716 5717 5717 5717 5718 5718 5717 5717 5718 5718 5718 5717 5717 5717 5717 5717 5716 5716 5716 5716 5716 5716 5716 5715 5715 5715 5714
5698 5699 5699 5700 5702 5701 5701 5701 5702 5703 5703 5704 5705 5705 5706 5707 5707 5708 5708 5709 5709 5709 5709 5709 5709 5709 5710 5709 5709 5709 5709 5708 5708 5708 5708 5708 5707 5707 5707 5707 5707 5707 5707 5706
5692 5692 5692 5693 5694 5694 5694 5695 5695 5695 5696 5697 5697 5698 5698 5699 5699 5700 5700 5700 5701 5701 5701 5701 5701 5701 5701 5701 5701 5700 5700 5699 5699 5699 5699 5699 5699 5698 5698 5698 5698 5698 5698 5697
5685 5685 5685 5685 5686 5686 5687 5687 5688 5688 5688 5689 5689 5690 5690 5690 5691 5691 5691 5692 5692 5692 5692 5692 5692 5692 5692 5692 5692 5691 5691 5691 5691 5691 5690 5690 5690 5690 5689 5689 5689 5688 5688 5688
5678 5678 5678 5678 5679 5679 5680 5680 5680 5680 5681 5681 5681 5682 5682 5682 5682 5683 5683 5683 5683 5683 5683 5683 5683 5683 5683 5683 5682 5682 5682 5682 5682 5682 5682 5681 5681 5681 5680 5679 5679 5678 5678 5678